Location: Dittelbrunn
(50.0738°N, 10.2196°E)
Time: 13:07:52
(UTC+00:00)

Meteor 1-15 Rocket - Pass Details

Date: 18 September 2020
Orbit: 840 x 906 km, 81.2° (Epoch: 21 October)

Event Time Altitude Azimuth Distance (km) Brightness Sun altitude
Rises 19:51:33 0° 197° (SSW) 3,396 7.2 -23.0°
Reaches altitude 10° 19:53:57 10° 200° (SSW) 2,472 6.5 -23.3°
Maximum altitude 19:59:33 71° 284° (WNW) 912 4.4 -24.0°
Drops below altitude 10° 20:05:17 10° 9° (N) 2,530 7.0 -24.8°
Sets 20:07:47 0° 12° (NNE) 3,483 7.7 -25.1°
